GW1454 Weather Reports


Display with metric or nautical units.
time (UTC)temp
F
wind
direction
speed
MPH
gust
MPH
rain 1hr
in
rain 24hr
in
rain mn
in
humidity
%
barometer
mb
20260503211555 66 75 2.0 8.0 0.00 0.00 0.00 29 1016.6
20260503211048 65 142 4.0 8.0 0.00 0.00 0.00 28 1016.6
20260503210544 65 171 2.0 8.0 0.00 0.00 0.00 28 1016.5
20260503210053 65 184 2.0 9.0 0.00 0.00 0.00 27 1016.5
20260503205545 65 221 3.0 9.0 0.00 0.00 0.00 27 1016.6
20260503205048 65 129 4.0 9.0 0.00 0.00 0.00 28 1016.6
20260503204552 65 132 2.0 9.0 0.00 0.00 0.00 26 1016.7
20260503204047 65 126 2.0 9.0 0.00 0.00 0.00 26 1016.7
20260503203545 65 149 1.0 9.0 0.00 0.00 0.00 26 1016.8
20260503203056 65 114 2.0 11.0 0.00 0.00 0.00 25 1017.0
20260503202545 65 125 4.0 11.0 0.00 0.00 0.00 27 1017.1
20260503202048 65 109 4.0 10.0 0.00 0.00 0.00 27 1017.0
20260503201552 65 138 1.0 8.0 0.00 0.00 0.00 27 1017.1
20260503201047 65 134 4.0 13.0 0.00 0.00 0.00 30 1017.2
20260503200547 65 0 4.0 13.0 0.00 0.00 0.00 27 1017.3
20260503200101 64 66 5.0 13.0 0.00 0.00 0.00 28 1017.4
20260503195546 64 76 4.0 13.0 0.00 0.00 0.00 28 1017.6
20260503195047 64 121 4.0 13.0 0.00 0.00 0.00 27 1017.5
20260503194559 64 57 7.0 13.0 0.00 0.00 0.00 27 1017.7
20260503194047 64 291 4.0 11.0 0.00 0.00 0.00 27 1017.7
20260503193547 64 86 2.0 11.0 0.00 0.00 0.00 28 1017.5
20260503193051 65 118 2.0 8.0 0.00 0.00 0.00 28 1017.8
20260503192547 64 141 3.0 8.0 0.00 0.00 0.00 30 1017.8
20260503192048 64 180 2.0 8.0 0.00 0.00 0.00 27 1017.9
20260503191552 63 72 3.0 11.0 0.00 0.00 0.00 30 1017.9
20260503191048 63 157 3.0 11.0 0.00 0.00 0.00 28 1017.9
20260503190550 63 150 5.0 11.0 0.00 0.00 0.00 28 1018.1
20260503190050 63 133 3.0 9.0 0.00 0.00 0.00 29 1018.3
20260503185544 63 196 2.0 9.0 0.00 0.00 0.00 28 1018.2
20260503185050 63 126 3.0 9.0 0.00 0.00 0.00 28 1018.3
20260503184603 63 175 0.0 9.0 0.00 0.00 0.00 29 1018.4
20260503184047 62 138 2.0 9.0 0.00 0.00 0.00 28 1018.5
20260503183546 62 130 4.0 10.0 0.00 0.00 0.00 29 1018.5
20260503183054 62 22 4.0 10.0 0.00 0.00 0.00 28 1018.6
20260503182552 62 82 3.0 12.0 0.00 0.00 0.00 30 1018.6
20260503182047 62 132 3.0 13.0 0.00 0.00 0.00 29 1018.7
20260503181551 62 198 4.0 13.0 0.00 0.00 0.00 28 1018.7
20260503181047 61 55 4.0 9.0 0.00 0.00 0.00 31 1018.7
20260503180546 61 74 2.0 11.0 0.00 0.00 0.00 30 1018.9
20260503180104 61 155 4.0 11.0 0.00 0.00 0.00 31 1019.1
20260503175550 62 162 2.0 10.0 0.00 0.00 0.00 30 1019.0
20260503175048 62 28 4.0 10.0 0.00 0.00 0.00 31 1019.0
20260503174549 62 0 2.0 8.0 0.00 0.00 0.00 30 1018.9
20260503174050 61 61 2.0 8.0 0.00 0.00 0.00 33 1019.1
20260503173548 61 144 2.0 11.0 0.00 0.00 0.00 31 1019.1
20260503173102 60 151 4.0 11.0 0.00 0.00 0.00 33 1019.3
20260503172548 60 70 2.0 9.0 0.00 0.00 0.00 32 1019.2
20260503172047 60 196 3.0 9.0 0.00 0.00 0.00 31 1019.2
20260503171558 60 140 3.0 9.0 0.00 0.00 0.00 31 1019.3
20260503171047 60 138 1.0 10.0 0.00 0.00 0.00 32 1019.3
20260503170546 60 111 1.0 10.0 0.00 0.00 0.00 34 1019.5
20260503170108 59 117 3.0 12.0 0.00 0.00 0.00 35 1019.5
20260503160117 57 161 4.0 10.0 0.00 0.00 0.00 37 1020.3
20260503150545 55 134 2.0 12.0 0.00 0.00 0.00 43 1020.4
20260503131048 50 0 2.0 10.0 0.00 0.00 0.00 61 1020.1
20260503130548 50 138 3.0 10.0 0.00 0.00 0.00 64 1020.1
20260503110544 34 0 0.0 0.0 0.00 0.00 0.00 93 1019.2
20260503081551 35 0 0.0 0.0 0.00 0.00 0.00 90 1017.3
20260503081048 35 0 0.0 0.0 0.00 0.00 0.00 91 1017.3
20260503080550 35 0 0.0 0.0 0.00 0.00 0.00 91 1017.2
20260503072549 36 0 0.0 0.0 0.00 0.00 0.00 89 1016.6
20260503072045 36 0 0.0 0.0 0.00 0.00 0.00 89 1016.6
20260503071553 37 0 0.0 0.0 0.00 0.00 0.00 90 1016.6
20260503071048 37 0 0.0 0.0 0.00 0.00 0.00 90 1016.5
20260503070548 37 0 0.0 0.0 0.00 0.00 0.00 89 1016.5
20260503060110 37 0 0.0 0.0 0.00 0.00 0.00 91 1016.1
20260503055048 37 0 0.0 0.0 0.00 0.00 0.00 91 1016.1
20260503054602 37 0 0.0 0.0 0.00 0.00 0.00 91 1016.0
20260503054047 37 0 0.0 0.0 0.00 0.00 0.00 91 1016.1
20260503053546 37 0 0.0 0.0 0.00 0.00 0.00 91 1016.1
20260503053052 37 0 0.0 0.0 0.00 0.00 0.00 90 1016.1
20260503052546 37 0 0.0 0.0 0.00 0.00 0.00 90 1016.0
20260503052050 37 0 0.0 0.0 0.00 0.00 0.00 90 1016.0
20260503051552 37 0 0.0 0.0 0.00 0.00 0.00 90 1016.0
20260503051047 38 0 0.0 0.0 0.00 0.00 0.00 90 1016.0
20260503050548 38 0 0.0 0.0 0.00 0.00 0.00 90 1016.0
20260503050052 38 0 0.0 0.0 0.00 0.00 0.00 90 1016.0
20260503045549 38 0 0.0 0.0 0.00 0.00 0.00 89 1016.0
20260503045046 38 0 0.0 0.0 0.00 0.00 0.00 90 1015.9
20260503044552 38 0 0.0 0.0 0.00 0.00 0.00 90 1015.9
20260503044045 39 0 0.0 0.0 0.00 0.00 0.00 90 1015.9
20260503043546 39 0 0.0 0.0 0.00 0.00 0.00 90 1015.8
20260503043053 39 0 0.0 0.0 0.00 0.00 0.00 89 1015.8
20260503042547 39 0 0.0 0.0 0.00 0.00 0.00 89 1015.8
20260503042045 39 0 0.0 0.0 0.00 0.00 0.00 89 1015.7
20260503041553 39 0 0.0 0.0 0.00 0.00 0.00 88 1015.7
20260503041048 40 0 0.0 0.0 0.00 0.00 0.00 88 1015.7
20260503040545 40 0 0.0 0.0 0.00 0.00 0.00 88 1015.7
20260503040057 40 0 0.0 0.0 0.00 0.00 0.00 89 1015.6
20260503035546 40 0 0.0 0.0 0.00 0.00 0.00 88 1015.6
20260503035051 40 0 0.0 0.0 0.00 0.00 0.00 88 1015.6
20260503034550 40 0 0.0 0.0 0.00 0.00 0.00 88 1015.5
20260503034046 40 0 0.0 0.0 0.00 0.00 0.00 88 1015.4
20260503033545 41 0 0.0 0.0 0.00 0.00 0.00 87 1015.5
20260503033053 41 0 0.0 0.0 0.00 0.00 0.00 87 1015.5
20260503032547 41 0 0.0 0.0 0.00 0.00 0.00 87 1015.5
20260503032044 41 0 0.0 0.0 0.00 0.00 0.00 87 1015.3
20260503031552 41 0 0.0 0.0 0.00 0.00 0.00 87 1015.3
20260503031046 41 0 0.0 0.0 0.00 0.00 0.00 86 1015.1
20260503030549 41 0 0.0 0.0 0.00 0.00 0.00 86 1015.1
20260503030057 42 0 0.0 0.0 0.00 0.00 0.00 86 1015.2
20260503025552 42 0 0.0 0.0 0.00 0.00 0.00 86 1015.2
20260503025048 42 0 0.0 0.0 0.00 0.00 0.00 85 1015.2
20260503024550 42 0 0.0 0.0 0.00 0.00 0.00 85 1015.2
20260503024048 43 0 0.0 0.0 0.00 0.00 0.00 84 1015.1
20260503023548 43 0 0.0 0.0 0.00 0.00 0.00 84 1015.2
20260503023056 43 0 0.0 0.0 0.00 0.00 0.00 84 1015.1
20260503022544 43 0 0.0 0.0 0.00 0.00 0.00 83 1015.1
20260503022047 44 0 0.0 0.0 0.00 0.00 0.00 83 1015.1
20260503021555 44 0 0.0 0.0 0.00 0.00 0.00 83 1015.1
20260503021045 44 0 0.0 0.0 0.00 0.00 0.00 83 1015.0
20260503020545 44 0 0.0 0.0 0.00 0.00 0.00 82 1015.1
20260503020101 45 0 0.0 0.0 0.00 0.00 0.00 82 1015.0
20260503015546 45 0 0.0 0.0 0.00 0.00 0.00 81 1014.9
20260503015046 46 0 0.0 0.0 0.00 0.00 0.00 81 1014.9
20260503014552 46 0 0.0 0.0 0.00 0.00 0.00 81 1014.7
20260503014045 46 0 0.0 0.0 0.00 0.00 0.00 80 1014.7
20260503013545 47 0 0.0 0.0 0.00 0.00 0.00 79 1014.6
20260503013049 47 0 0.0 0.0 0.00 0.00 0.00 79 1014.4
20260503012548 47 0 0.0 0.0 0.00 0.00 0.00 78 1014.3
20260503012045 47 0 0.0 2.0 0.00 0.00 0.00 78 1014.2
20260503011602 48 0 0.0 2.0 0.00 0.00 0.00 77 1014.1
20260503011048 48 0 0.0 2.0 0.00 0.00 0.00 77 1014.0
20260503010548 48 0 0.0 0.0 0.00 0.00 0.00 77 1013.9
20260503005547 49 0 0.0 0.0 0.00 0.00 0.00 75 1013.7
20260503005045 49 0 0.0 0.0 0.00 0.00 0.00 74 1013.6
20260503004558 49 0 0.0 0.0 0.00 0.00 0.00 74 1013.5
20260503004044 50 0 0.0 0.0 0.00 0.00 0.00 72 1013.3
20260503003547 51 0 0.0 0.0 0.00 0.00 0.00 70 1013.4
20260503003102 51 0 0.0 0.0 0.00 0.00 0.00 69 1013.3
20260503002544 52 0 0.0 0.0 0.00 0.00 0.00 67 1013.1
20260503002047 52 0 0.0 0.0 0.00 0.00 0.00 66 1013.2
20260503001608 53 0 0.0 0.0 0.00 0.00 0.00 67 1013.1
20260503001049 53 0 0.0 0.0 0.00 0.00 0.00 68 1013.1
20260503000546 53 0 0.0 0.0 0.00 0.00 0.00 68 1013.1
20260503000048 53 0 0.0 0.0 0.00 0.00 0.00 67 1013.0
20260502235545 54 0 0.0 0.0 0.00 0.00 0.00 67 1013.0
20260502235047 54 0 0.0 0.0 0.00 0.00 0.00 65 1012.9
20260502234554 54 0 0.0 0.0 0.00 0.00 0.00 64 1012.8
20260502234047 55 0 0.0 0.0 0.00 0.00 0.00 63 1012.7
20260502233547 55 0 0.0 0.0 0.00 0.00 0.00 63 1012.7
20260502233051 55 0 0.0 0.0 0.00 0.00 0.00 61 1012.6
20260502232547 55 0 0.0 0.0 0.00 0.00 0.00 60 1012.5
20260502232044 56 0 0.0 0.0 0.00 0.00 0.00 59 1012.4
20260502231548 56 0 0.0 0.0 0.00 0.00 0.00 58 1012.3
20260502231047 57 0 0.0 0.0 0.00 0.00 0.00 56 1012.3
20260502230547 57 0 0.0 0.0 0.00 0.00 0.00 53 1012.3
20260502230050 58 0 0.0 0.0 0.00 0.00 0.00 53 1012.4
20260502225550 58 0 0.0 0.0 0.00 0.00 0.00 50 1012.3
20260502225045 59 0 0.0 0.0 0.00 0.00 0.00 47 1012.3
20260502224554 60 0 0.0 1.0 0.00 0.00 0.00 44 1012.2
20260502224047 60 0 0.0 3.0 0.00 0.00 0.00 41 1012.1
20260502223547 61 0 0.0 3.0 0.00 0.00 0.00 40 1012.2
20260502223051 62 334 0.0 2.0 0.00 0.00 0.00 41 1012.2
20260502222546 61 76 0.0 4.0 0.00 0.00 0.00 42 1012.0
20260502222050 61 125 0.0 4.0 0.00 0.00 0.00 42 1011.9
20260502221554 60 113 2.0 4.0 0.00 0.00 0.00 42 1011.8
20260502221047 61 0 0.0 8.0 0.00 0.00 0.00 41 1011.7
20260502220548 60 89 3.0 8.0 0.00 0.00 0.00 41 1011.7
20260502220053 61 104 1.0 8.0 0.00 0.00 0.00 41 1011.7
20260502215547 60 0 1.0 8.0 0.00 0.00 0.00 43 1011.8
20260502215045 61 105 4.0 7.0 0.00 0.00 0.00 41 1011.6
20260502214551 61 0 2.0 4.0 0.00 0.00 0.00 41 1011.7
20260502214047 61 159 1.0 7.0 0.00 0.00 0.00 39 1011.8
20260502213546 61 0 3.0 9.0 0.00 0.00 0.00 40 1011.7
20260502213107 62 240 1.0 9.0 0.00 0.00 0.00 40 1011.6
20260502212545 62 82 3.0 9.0 0.00 0.00 0.00 38 1011.6
20260502212048 62 0 1.0 8.0 0.00 0.00 0.00 41 1011.6